Stations météo

Publicité
Kempten, Allemagne (10946): Température de l'air & dewpoint: 14.06.2018 09:00:00 - 20.06.2018 09:00:00 (CEST)Kempten, Allemagne (10946): Température de l'air 5cm & Température de l'air -5cm: 14.06.2018 09:00:00 - 20.06.2018 09:00:00 (CEST)Kempten, Allemagne (10946): Température de l'air -20cm & Température de l'air -100cm: 14.06.2018 09:00:00 - 20.06.2018 09:00:00 (CEST)Kempten, Allemagne (10946): Vitesse du vent & gusts: 14.06.2018 09:00:00 - 20.06.2018 09:00:00 (CEST)Kempten, Allemagne (10946): Direction du vent: 14.06.2018 09:00:00 - 20.06.2018 09:00:00 (CEST)Kempten, Allemagne (10946): reduced air pressure: 14.06.2018 09:00:00 - 20.06.2018 09:00:00 (CEST)Kempten, Allemagne (10946): visibility: 14.06.2018 09:00:00 - 20.06.2018 09:00:00 (CEST)Kempten, Allemagne (10946): Ensoleillement: 14.06.2018 09:00:00 - 20.06.2018 09:00:00 (CEST)Kempten, Allemagne (10946): Quantités de précipitations: 14.06.2018 09:00:00 - 20.06.2018 09:00:00 (CEST)
Date & Time tt [°C] td [°C] tt 5cm [°C] tt -5cm [°C] tt -20cm [°C] tt -100cm [°C] ff [km/h] ff [knt] fx [km/h] fx [knt] dd ppp [hPa] vv [km] sd [min] rr [mm]
20.06.2018 09:00:00 19,4 12,8 22,4 18,8 18,9 16,5 0 0 6 3 N 1020,7 25 60 0,0
20.06.2018 08:00:00 16,3 12,4 18,0 16,8 19,1 16,5 3 2 9 5 - 1021,9 26 60 0,0
20.06.2018 07:00:00 13,2 11,9 13,9 15,5 19,5 16,5 4 2 8 4 - 1023,0 23 14 0,0
20.06.2018 06:00:00 11,4 10,5 10,6 15,7 19,9 16,5 5 3 9 5 - 1023,6 13 0 0,0
20.06.2018 05:00:00 11,7 11,0 10,4 16,2 20,3 16,5 6 3 9 5 - 1023,6 10 0 0,0
20.06.2018 04:00:00 12,3 11,4 10,9 16,8 20,8 16,5 6 3 8 5 - 1023,5 16 0 0,0
20.06.2018 03:00:00 12,6 11,6 11,3 17,5 21,2 16,5 4 2 8 5 - 1023,8 11 0 0,0
20.06.2018 02:00:00 12,8 11,8 11,5 18,2 21,8 16,5 0 0 9 5 N 1024,1 12 0 0,0
20.06.2018 01:00:00 13,6 12,3 12,6 19,1 22,3 16,5 3 2 8 4 - 1024,1 17 0 0,0
20.06.2018 00:00:00 14,4 12,7 12,9 20,1 22,8 16,5 3 1 5 3 - 1023,8 19 0 0,0
19.06.2018 23:00:00 15,3 13,2 13,7 21,3 23,4 16,5 1 1 9 5 N 1023,8 24 0 0,0
19.06.2018 22:00:00 19,1 12,2 16,6 22,8 23,8 16,5 6 3 9 5 - 1022,5 36 0 0,0
19.06.2018 21:00:00 20,3 12,3 18,6 24,9 24,1 16,5 5 3 16 8 - 1022,0 41 34 0,0
19.06.2018 20:00:00 22,8 11,1 24,3 27,2 24,1 16,5 8 4 16 9 - 1021,2 30 60 0,0
19.06.2018 19:00:00 23,9 11,5 28,8 28,9 23,8 16,5 7 4 19 10 - 1021,0 29 57 0,0
19.06.2018 18:00:00 24,2 11,5 29,4 30,1 23,4 16,5 7 4 17 9 - 1020,9 17 60 0,0
19.06.2018 17:00:00 23,6 10,0 28,9 29,9 22,7 16,5 7 4 16 9 - 1021,4 16 58 0,0
19.06.2018 16:00:00 22,8 9,9 27,7 29,4 22,0 16,5 9 5 17 9 - 1022,0 17 60 0,0
19.06.2018 15:00:00 22,9 10,3 27,7 28,0 21,3 16,5 10 6 20 11 - 1022,4 9 52 0,0
19.06.2018 14:00:00 22,9 12,2 26,3 27,5 20,6 16,5 7 4 18 10 - 1022,5 40 59 0,0
19.06.2018 13:00:00 21,4 10,6 26,5 26,2 19,8 16,5 6 3 18 10 - 1023,0 21 53 0,0
19.06.2018 12:00:00 20,4 10,4 24,9 24,6 19,0 16,5 6 4 14 7 - 1023,4 22 58 0,0
19.06.2018 11:00:00 19,8 11,2 25,0 22,5 18,4 16,5 6 4 13 7 - 1023,8 23 60 0,0
19.06.2018 10:00:00 18,7 10,2 22,3 20,0 18,0 16,5 5 3 9 5 - 1024,3 39 60 0,0
19.06.2018 09:00:00 17,5 12,6 20,3 17,9 17,8 16,4 5 3 11 6 - 1024,7 21 47 0,0
19.06.2018 08:00:00 14,1 11,0 15,2 16,0 17,9 16,4 6 3 12 6 S 1025,6 19 3 0,0
19.06.2018 07:00:00 12,8 11,0 12,7 15,0 18,2 16,4 6 4 11 6 S 1025,7 19 0 0,0
19.06.2018 06:00:00 11,3 10,5 11,0 14,9 18,5 16,4 7 4 9 5 ESE 1025,9 11 0 0,0
19.06.2018 05:00:00 11,6 10,7 10,7 15,3 18,8 16,4 5 3 7 4 ESE 1025,4 13 0 0,0
19.06.2018 04:00:00 12,2 11,1 10,7 16,0 19,2 16,4 5 3 7 4 E 1024,9 10 0 0,0
19.06.2018 03:00:00 13,3 11,6 12,7 16,4 19,5 16,4 5 3 8 4 ESE 1024,3 20 0 0,0
19.06.2018 02:00:00 13,4 11,9 11,9 16,9 19,8 16,4 6 3 11 6 ESE 1024,3 14 0 0,0
19.06.2018 01:00:00 14,5 11,9 13,7 17,1 20,2 16,4 8 4 14 7 SW 1024,0 24 0 0,0
19.06.2018 00:00:00 14,7 12,4 12,9 18,0 20,6 16,4 8 4 13 7 SSE 1023,7 17 0 0,0
18.06.2018 23:00:00 15,9 13,2 14,1 19,1 21,0 16,4 6 4 11 6 SE 1022,9 10 0 0,0
18.06.2018 22:00:00 16,1 13,8 15,6 19,9 21,3 16,4 2 1 6 3 SE 1022,3 13 0 0,0
18.06.2018 21:00:00 18,2 12,9 16,4 21,1 21,6 16,4 3 2 10 5 S 1021,4 23 21 0,0
18.06.2018 20:00:00 19,7 12,5 19,8 22,5 21,6 16,4 8 4 14 8 SSW 1020,7 22 33 0,0
18.06.2018 19:00:00 19,4 12,1 19,6 23,7 21,5 16,4 7 4 15 8 N 1020,8 22 28 0,0
18.06.2018 18:00:00 20,9 10,8 23,7 24,6 21,3 16,4 5 3 13 7 N 1020,2 27 25 0,0
18.06.2018 17:00:00 20,5 11,1 24,2 24,5 21,1 16,4 4 2 16 8 NNW 1020,5 23 18 0,0
18.06.2018 16:00:00 20,2 11,3 23,0 24,5 20,8 16,4 5 3 18 10 N 1020,7 27 18 0,0
18.06.2018 15:00:00 19,1 10,7 21,6 24,1 20,5 16,4 10 6 17 9 NNW 1021,4 20 1 0,0
18.06.2018 14:00:00 19,8 11,5 24,1 23,9 20,0 16,4 6 3 18 10 N 1021,1 25 1 0,0
18.06.2018 13:00:00 18,5 11,0 21,6 23,5 19,6 16,4 8 4 16 9 NNW 1021,7 27 0 0,0
18.06.2018 12:00:00 18,0 10,7 21,0 23,0 19,1 16,4 10 5 16 8 NNW 1021,6 24 14 0,0
18.06.2018 11:00:00 17,7 11,3 20,4 21,3 18,7 16,4 7 4 11 6 N 1021,8 28 0 0,0
18.06.2018 10:00:00 16,9 10,7 18,9 19,8 18,4 16,4 4 2 8 4 NNW 1021,9 25 7 0,0
18.06.2018 09:00:00 16,3 11,0 17,0 18,6 18,2 16,4 1 1 6 4 N 1021,9 21 32 0,0
18.06.2018 08:00:00 14,5 12,3 15,1 17,1 18,3 16,4 0 0 6 3 N 1022,2 12 7 0,0
18.06.2018 07:00:00 13,5 12,7 13,9 16,2 18,5 16,4 2 1 4 2 SW 1022,4 6 0 0,0
18.06.2018 06:00:00 12,9 12,2 12,8 16,2 18,7 16,4 0 0 5 3 N 1022,2 2,6 0 0,0
18.06.2018 05:00:00 13,2 12,4 13,0 16,6 18,9 16,4 4 2 19 10 NE 1021,9 11 0 2,0
18.06.2018 04:00:00 14,1 13,5 14,1 16,9 19,1 16,4 2 1 5 3 SE 1021,4 5 0 0,0
18.06.2018 03:00:00 14,2 13,5 14,0 17,1 19,3 16,4 0 0 8 5 N 1021,3 4,3 0 0,0
18.06.2018 02:00:00 14,6 14,0 14,5 17,5 19,5 16,3 0 0 8 4 N 1021,4 4,4 0 0,0
18.06.2018 01:00:00 14,6 13,9 14,8 17,7 19,8 16,3 5 3 6 4 SSE 1021,3 2,8 0 0,1
18.06.2018 00:00:00 14,8 14,1 14,8 18,0 20,0 16,3 2 1 8 4 S 1021,1 4,8 0 0,4
17.06.2018 23:00:00 15,0 14,3 15,1 18,3 20,3 16,3 2 1 5 3 SSW 1020,7 3,2 0 0,4
17.06.2018 22:00:00 14,9 14,2 14,8 18,6 20,5 16,3 1 1 9 5 SE 1020,1 3,9 0 0,6
17.06.2018 21:00:00 15,4 14,4 15,3 19,1 20,8 16,3 5 3 11 6 N 1019,3 11 0 0,0
17.06.2018 20:00:00 15,3 14,1 15,5 19,5 21,1 16,4 6 4 12 7 S 1018,8 16 0 0,0
17.06.2018 19:00:00 15,3 14,5 15,9 19,6 21,6 16,4 5 3 12 7 SSE 1018,2 11 0 5,9
17.06.2018 18:00:00 15,1 14,4 15,0 20,5 22,0 16,3 9 5 27 15 W 1018,6 0,5 0 11,1
17.06.2018 17:00:00 16,2 15,5 16,7 22,9 22,1 16,3 9 5 18 10 SE 1017,3 4,1 0 3,2
17.06.2018 16:00:00 20,3 12,7 21,4 25,2 21,9 16,3 4 2 18 10 N 1015,9 27 0 0,0
17.06.2018 15:00:00 20,6 11,7 23,5 26,3 21,5 16,3 7 4 18 10 NNW 1016,0 30 2 0,0
17.06.2018 14:00:00 20,3 12,6 23,1 27,0 20,9 16,3 11 6 21 11 NNW 1016,2 23 24 0,0
17.06.2018 13:00:00 19,4 12,9 22,2 24,8 20,4 16,3 10 5 22 12 NNW 1016,9 16 10 0,0
17.06.2018 12:00:00 20,1 12,7 24,7 23,4 19,9 16,3 7 4 23 12 N 1016,7 18 5 0,0
17.06.2018 11:00:00 20,7 12,7 26,3 23,7 19,3 16,3 6 3 16 8 N 1016,5 17 53 0,0
17.06.2018 10:00:00 18,8 10,8 22,9 21,2 19,0 16,3 6 4 17 9 N 1017,0 23 24 0,0
17.06.2018 09:00:00 17,8 10,6 20,3 19,6 18,9 16,3 4 2 8 4 NW 1017,0 23 48 0,0
17.06.2018 08:00:00 15,5 9,7 17,0 17,0 19,0 16,3 4 2 12 7 S 1017,2 23 41 0,0
17.06.2018 07:00:00 13,7 9,5 14,0 15,9 19,3 16,3 5 3 12 6 ESE 1017,6 28 8 0,0
17.06.2018 06:00:00 13,1 8,9 11,7 16,1 19,7 16,3 8 5 13 7 SSE 1017,4 25 0 0,0
17.06.2018 05:00:00 12,8 9,4 11,8 16,3 20,1 16,3 9 5 19 11 SE 1017,2 20 0 0,0
17.06.2018 04:00:00 13,5 9,6 11,8 16,7 20,6 16,3 8 4 16 8 SSE 1016,9 24 0 0,0
17.06.2018 03:00:00 12,4 9,9 10,5 17,4 21,1 16,3 6 4 14 8 SE 1017,2 19 0 0,0
17.06.2018 02:00:00 12,0 10,4 10,5 18,2 21,7 16,3 8 4 10 6 ESE 1017,3 14 0 0,0
17.06.2018 01:00:00 12,4 10,5 11,0 19,1 22,2 16,3 7 4 9 5 ESE 1017,3 13 0 0,0
17.06.2018 00:00:00 13,7 10,9 12,7 20,3 22,8 16,3 7 4 9 5 ESE 1016,8 17 0 0,0
16.06.2018 23:00:00 14,7 11,6 13,8 21,6 23,3 16,3 6 4 9 5 ESE 1016,3 17 0 0,0
16.06.2018 22:00:00 16,7 12,2 15,0 23,3 23,8 16,3 3 2 8 4 ENE 1015,2 21 0 0,0
16.06.2018 21:00:00 19,3 11,2 18,3 25,2 24,1 16,3 4 2 11 6 N 1013,8 25 23 0,0
16.06.2018 20:00:00 22,0 6,5 22,0 27,3 24,3 16,3 6 3 16 9 WNW 1013,0 38 52 0,0
16.06.2018 19:00:00 23,0 5,7 26,4 29,9 24,1 16,3 9 5 18 10 NW 1012,5 29 60 0,0
16.06.2018 18:00:00 23,2 6,0 29,3 31,5 23,6 16,3 6 3 15 8 W 1012,0 41 60 0,0
16.06.2018 17:00:00 23,9 8,2 29,8 32,1 22,9 16,3 6 3 17 9 NNW 1012,0 59 60 0,0
16.06.2018 16:00:00 23,6 7,2 29,5 31,8 22,0 16,3 7 4 16 9 N 1012,3 29 58 0,0
16.06.2018 15:00:00 22,3 6,7 28,6 31,3 20,9 16,3 8 4 18 10 N 1012,9 18 60 0,0
16.06.2018 14:00:00 22,0 5,8 28,7 29,7 19,8 16,3 7 4 18 10 N 1013,3 37 60 0,0
16.06.2018 13:00:00 21,1 5,2 28,1 27,3 18,7 16,3 6 3 14 8 N 1014,0 34 60 0,0
16.06.2018 12:00:00 20,5 7,1 25,8 24,3 17,8 16,3 6 4 16 8 NNW 1014,4 20 60 0,0
16.06.2018 11:00:00 19,4 6,0 25,1 21,4 17,0 16,3 7 4 14 8 N 1014,5 25 60 0,0
16.06.2018 10:00:00 18,5 9,2 23,0 18,6 16,6 16,3 4 2 9 5 N 1014,8 22 60 0,0
16.06.2018 09:00:00 16,0 8,8 19,0 16,1 16,5 16,3 2 1 9 5 N 1015,6 21 60 0,0
16.06.2018 08:00:00 12,7 8,5 14,3 13,9 16,6 16,3 5 3 12 6 S 1016,4 13 60 0,0
16.06.2018 07:00:00 9,5 8,2 10,2 12,3 17,0 16,3 8 4 10 5 ESE 1017,6 12 10 0,0
16.06.2018 06:00:00 7,5 6,7 6,4 12,4 17,4 16,4 8 4 9 5 E 1018,1 7 0 0,0
16.06.2018 05:00:00 7,5 6,7 6,3 12,9 17,9 16,4 7 4 10 5 E 1018,0 7 0 0,0
16.06.2018 04:00:00 7,8 6,9 6,5 13,5 18,4 16,4 6 4 9 5 ESE 1018,0 7 0 0,0
16.06.2018 03:00:00 8,5 7,4 7,1 14,2 18,9 16,4 6 3 9 5 E 1018,0 7 0 0,0
16.06.2018 02:00:00 9,2 7,8 7,6 15,1 19,4 16,4 5 3 10 5 E 1018,1 8 0 0,0
16.06.2018 01:00:00 10,2 8,6 8,5 16,1 19,9 16,4 2 1 9 5 NE 1018,0 8 0 0,0
16.06.2018 00:00:00 11,3 9,3 9,4 17,2 20,5 16,4 5 3 9 5 E 1017,8 11 0 0,0
15.06.2018 23:00:00 12,5 9,7 10,6 18,5 21,0 16,4 5 3 7 4 E 1017,4 14 0 0,0
15.06.2018 22:00:00 14,9 8,6 11,6 19,8 21,4 16,4 3 2 8 4 N 1016,6 23 0 0,0
15.06.2018 21:00:00 16,4 8,8 14,8 21,7 21,7 16,4 5 3 14 8 ENE 1015,6 24 12 0,0
15.06.2018 20:00:00 18,4 8,2 19,4 23,8 21,7 16,4 3 2 19 10 NE 1014,8 28 37 0,0
15.06.2018 19:00:00 19,7 8,0 23,6 25,7 21,4 16,4 10 5 21 11 N 1014,1 20 36 0,0
15.06.2018 18:00:00 20,9 8,5 27,3 26,9 20,9 16,4 9 5 24 13 N 1013,6 18 60 0,0
15.06.2018 17:00:00 21,1 7,6 26,7 26,1 20,5 16,5 11 6 21 12 N 1013,5 16 49 0,0
15.06.2018 16:00:00 19,1 7,7 20,2 24,3 20,1 16,5 10 5 16 9 N 1014,5 39 10 0,0
15.06.2018 15:00:00 20,1 7,8 24,9 25,3 19,4 16,5 11 6 19 10 NNW 1014,2 18 53 0,0
15.06.2018 14:00:00 19,6 7,4 23,6 25,0 18,6 16,5 8 5 18 10 N 1014,6 27 60 0,0
15.06.2018 13:00:00 19,0 6,5 25,0 24,0 17,8 16,5 8 4 18 10 N 1015,0 22 60 0,0
15.06.2018 12:00:00 18,5 6,4 22,3 22,1 17,1 16,5 8 5 19 11 N 1015,2 17 60 0,0
15.06.2018 11:00:00 18,2 7,0 22,6 20,2 16,4 16,5 6 3 16 9 N 1015,2 18 59 0,0
15.06.2018 10:00:00 17,5 6,6 21,0 18,1 15,9 16,5 9 5 16 8 N 1015,6 16 60 0,0
15.06.2018 09:00:00 15,9 9,6 20,2 16,1 15,7 16,5 4 2 7 4 N 1016,0 21 60 0,0
15.06.2018 08:00:00 12,2 9,0 13,6 13,5 15,8 16,5 6 4 9 5 S 1017,0 15 60 0,0
15.06.2018 07:00:00 9,9 8,9 11,0 11,8 16,1 16,6 5 3 9 5 ESE 1017,8 9 11 0,0
15.06.2018 06:00:00 7,5 6,9 6,6 11,8 16,5 16,6 6 3 9 5 ESE 1018,7 6 0 0,0
15.06.2018 05:00:00 7,4 6,8 6,9 12,1 16,9 16,6 8 4 9 5 ESE 1018,6 6 0 0,0
15.06.2018 04:00:00 7,8 7,2 6,7 12,7 17,3 16,6 7 4 11 6 E 1018,6 5 0 0,0
15.06.2018 03:00:00 8,5 7,8 7,4 13,4 17,8 16,6 7 4 10 5 ESE 1018,5 4,9 0 0,0
15.06.2018 02:00:00 9,4 8,4 8,4 14,2 18,2 16,6 6 3 8 5 E 1018,4 7 0 0,0
15.06.2018 01:00:00 9,9 8,9 8,9 15,0 18,7 16,6 7 4 9 5 ESE 1018,4 7 0 0,0
15.06.2018 00:00:00 11,5 9,7 10,0 16,2 19,0 16,7 4 2 6 3 E 1017,9 10 0 0,0
14.06.2018 23:00:00 13,2 10,0 12,8 17,2 19,4 16,7 0 0 8 4 N 1017,2 15 0 0,0
14.06.2018 22:00:00 14,3 9,3 13,0 18,0 19,8 16,7 6 4 9 5 NE 1016,3 19 0 0,0
14.06.2018 21:00:00 15,6 9,4 15,4 19,7 20,0 16,7 4 2 10 5 N 1015,1 20 33 0,0
14.06.2018 20:00:00 16,7 7,7 18,7 21,7 19,9 16,7 7 4 11 6 N 1014,3 21 60 0,0
14.06.2018 19:00:00 17,0 7,8 22,3 22,8 19,7 16,7 8 4 16 9 N 1014,1 27 60 0,0
14.06.2018 18:00:00 17,7 8,5 22,9 22,6 19,5 16,7 5 3 15 8 N 1013,8 25 26 0,0
14.06.2018 17:00:00 17,1 8,3 20,6 23,6 19,1 16,7 8 4 16 9 NNE 1014,1 16 35 0,0
14.06.2018 16:00:00 16,8 7,7 20,4 22,3 18,8 16,8 10 5 18 10 N 1014,3 21 6 0,0
14.06.2018 15:00:00 17,1 7,7 22,7 23,4 18,3 16,8 8 5 19 10 N 1014,3 21 52 0,0
14.06.2018 14:00:00 15,3 7,3 18,0 21,1 17,8 16,8 8 4 18 10 N 1015,2 29 0 0,0
14.06.2018 13:00:00 16,1 7,5 20,3 22,7 17,1 16,8 7 4 17 9 E 1015,0 28 31 0,0
14.06.2018 12:00:00 15,6 7,0 21,3 20,9 16,4 16,8 8 4 19 10 ENE 1015,3 27 45 0,0
14.06.2018 11:00:00 14,2 6,4 19,1 19,3 15,8 16,8 9 5 19 10 ENE 1015,8 14 57 0,0
14.06.2018 10:00:00 13,8 7,5 17,5 17,1 15,4 16,8 9 5 17 9 ENE 1016,0 21 48 0,0
14.06.2018 09:00:00 12,5 7,6 15,7 15,2 15,2 16,8 6 3 13 7 NE 1016,4 16 51 0,0

tt = Température de l'air
td = dewpoint
tt 5cm = Température de l'air 5cm
tt -5cm = Température de l'air -5cm
tt -20cm = Température de l'air -20cm
tt -100cm = Température de l'air -100cm
ff = Vitesse du vent
fx = gusts
dd = Direction du vent
ppp = reduced air pressure
vv = visibility
sd = Ensoleillement
rr = Quantités de précipitations

stations d'obs. à proximité